Weather in Mihaylovka

Russia / Volgograd Oblast     50°04′15″N   43°14′23″E
temp.,
°C
wind,
m/s
gust,
m/s
humid.,
%
clouds,
%
prec.,
mm/h
press.,
hPa
HPBL,
m
27 july, tue
tue2700:00+19ne49460 0.0 1021156
03:00+19e365063 0.0 102299
06:00+19ene35530 0.0 1022119
09:00+26ene34330 0.0 1021860
12:00+29ne44250 0.0 10202286
15:00+30nne342431 0.0 10183022
18:00+29n44279 0.0 10182657
21:00+25nne483884 0.0 1018228
28 july, wed
wed2800:00+22nne34508 0.0 101862
03:00+19n22575 0.0 101818
06:00+20nne23595 0.0 101886
09:00+27nnw33411 0.0 1018848
12:00+30nnw343146 0.0 10162858
15:00+30n232964 0.0 10152524
18:00+29e123398 0.0 101572
21:00+26ene333924 0.0 101542
29 july, thu
thu2900:00+23sse334699 0.0 101421
03:00+21s3548100 0.0 101471
06:00+23s4946100 0.0 1013210
09:00+29wsw463032 0.0 1012675
12:00+33wsw782311 0.0 10113203
15:00+33wsw892899 0.0 10103211
18:00+30wnw79394 0.1 10101790
21:00+24w225997 0.4 101019
30 july, fri
fri3000:00+23wsw22649 0.0 101018
03:00+21sw226928 0.0 101017
06:00+23wnw1364100 0.0 101199
09:00+28sw344434 0.0 1011740
12:00+33sw363249 0.0 10102455
15:00+33wsw563096 0.0 10082493
18:00+29w4546100 0.8 1008998
21:00+21ne5108696 3.8 1010250
31 july, sat
sat3100:00+20sse5890100 1.9 1010196
03:00+21sw3486100 2.1 100971
06:00+22ssw248062 0.0 1010150
09:00+28wsw45555 0.0 1010692
12:00+33wsw463743 0.0 10092019
15:00+35wsw563092 0.0 10083214
18:00+29n59470 0.1 1008337
21:00+22w2269100 0.1 101051